Location: *
(90.0000°N, 180.0000°W)
Time: 19:00:31
(UTC+01:00)

Okean O Rocket - Visible Passes

Search period start: 20 December 2014 00:00
Search period end: 30 December 2014 00:00
Orbit: 624 x 648 km, 98.0° (Epoch: 19 December)

Date Brightness Start Highest point End Pass type
(mag) Time Alt. Az. Time Alt. Az. Time Alt. Az.
20 Dec 3.2 00:15:06 10° SSE 00:19:01 31° SW 00:21:31 18° W visible
20 Dec 3.2 01:52:36 10° S 01:56:31 31° WSW 01:59:01 18° WNW visible
20 Dec 3.2 03:30:05 10° SSW 03:34:00 31° W 03:36:30 18° NW visible
20 Dec 3.2 05:07:35 10° SW 05:11:30 31° WNW 05:14:00 18° NNW visible
20 Dec 3.2 06:45:04 10° WSW 06:49:00 31° NW 06:51:29 18° N visible
20 Dec 3.2 08:22:34 10° W 08:26:29 31° NNW 08:28:59 18° NNE visible
20 Dec 3.2 10:00:03 10° WNW 10:03:59 31° N 10:06:28 18° NE visible
20 Dec 3.2 11:37:33 10° NW 11:41:28 31° NNE 11:43:58 18° ENE visible
20 Dec 3.2 13:15:03 10° N 13:18:58 31° NE 13:21:27 18° ESE visible
20 Dec 3.2 14:52:32 10° NNE 14:56:27 31° ENE 14:58:57 18° SE visible
20 Dec 3.2 16:30:02 10° NE 16:33:57 31° E 16:36:26 18° SSE visible
20 Dec 3.2 18:07:31 10° ENE 18:11:26 31° SE 18:13:56 18° S visible
20 Dec 3.2 19:45:01 10° E 19:48:56 31° SSE 19:51:25 18° SSW visible
20 Dec 3.2 21:22:30 10° ESE 21:26:26 31° S 21:28:54 18° SW visible
20 Dec 3.2 23:00:00 10° SE 23:03:55 31° SSW 23:06:24 18° WSW visible
21 Dec 3.2 00:37:29 10° SSE 00:41:25 31° SW 00:43:53 18° W visible
21 Dec 3.2 02:14:59 10° S 02:18:54 31° WSW 02:21:23 18° WNW visible
21 Dec 3.2 03:52:29 10° SSW 03:56:24 31° W 03:58:52 18° NW visible
21 Dec 3.2 05:29:58 10° SW 05:33:53 31° WNW 05:36:22 18° NNW visible
21 Dec 3.2 07:07:28 10° WSW 07:11:23 31° NW 07:13:51 18° N visible
21 Dec 3.2 08:44:57 10° WNW 08:48:52 31° NNW 08:51:21 18° NE visible
21 Dec 3.2 10:22:27 10° NW 10:26:22 31° N 10:28:50 18° ENE visible
21 Dec 3.2 11:59:56 10° NNW 12:03:51 31° NNE 12:06:20 18° E visible
21 Dec 3.2 13:37:26 10° N 13:41:21 31° ENE 13:43:49 18° ESE visible
21 Dec 3.2 15:14:56 10° NNE 15:18:51 31° E 15:21:19 18° SE visible
21 Dec 3.2 16:52:25 10° NE 16:56:20 31° ESE 16:58:48 18° SSE visible
21 Dec 3.2 18:29:55 10° ENE 18:33:50 31° SE 18:36:18 18° S visible
21 Dec 3.2 20:07:24 10° E 20:11:19 31° SSE 20:13:47 18° SSW visible
21 Dec 3.2 21:44:54 10° ESE 21:48:49 31° S 21:51:17 18° SW visible
21 Dec 3.2 23:22:23 10° SE 23:26:18 31° SSW 23:28:46 18° WSW visible
22 Dec 3.2 00:59:53 10° SSE 01:03:48 31° SW 01:06:16 18° W visible
22 Dec 3.2 02:37:22 10° S 02:41:17 31° WSW 02:43:45 18° WNW visible
22 Dec 3.2 04:14:52 10° SW 04:18:47 31° W 04:21:15 18° NNW visible
22 Dec 3.2 05:52:22 10° WSW 05:56:16 31° WNW 05:58:44 18° N visible
22 Dec 3.2 07:29:51 10° W 07:33:46 30° NW 07:36:14 18° NNE visible
22 Dec 3.2 09:07:21 10° WNW 09:11:16 30° N 09:13:43 18° NE visible
22 Dec 3.2 10:44:50 10° NW 10:48:45 30° NNE 10:51:13 18° ENE visible
22 Dec 3.2 12:22:20 10° NNW 12:26:15 30° NE 12:28:42 18° E visible
22 Dec 3.2 13:59:49 10° N 14:03:44 30° ENE 14:06:12 18° ESE visible
22 Dec 3.2 15:37:19 10° NNE 15:41:14 30° E 15:43:41 18° SE visible
22 Dec 3.2 17:14:48 10° NE 17:18:43 30° ESE 17:21:11 18° SSE visible
22 Dec 3.2 18:52:18 10° ENE 18:56:13 30° SE 18:58:40 18° S visible
22 Dec 3.2 20:29:47 10° E 20:33:42 30° SSE 20:36:10 18° SSW visible
22 Dec 3.2 22:07:17 10° ESE 22:11:12 30° S 22:13:39 18° SW visible
22 Dec 3.2 23:44:47 10° SSE 23:48:41 30° SSW 23:51:09 18° W visible
23 Dec 3.2 01:22:16 10° S 01:26:11 30° SW 01:28:38 18° WNW visible
23 Dec 3.2 02:59:46 10° SSW 03:03:40 30° WSW 03:06:08 18° NW visible
23 Dec 3.2 04:37:15 10° SW 04:41:10 30° WNW 04:43:37 18° NNW visible
23 Dec 3.2 06:14:45 10° WSW 06:18:40 30° NW 06:21:07 18° N visible
23 Dec 3.2 07:52:14 10° W 07:56:09 30° NNW 07:58:36 18° NNE visible
23 Dec 3.2 09:29:44 10° WNW 09:33:39 30° N 09:36:06 18° NE visible
23 Dec 3.2 11:07:13 10° NW 11:11:08 30° NNE 11:13:35 18° ENE visible
23 Dec 3.2 12:44:43 10° NNW 12:48:38 30° NE 12:51:05 18° E visible
23 Dec 3.2 14:22:12 10° N 14:26:07 30° ENE 14:28:34 18° ESE visible
23 Dec 3.2 15:59:42 10° NNE 16:03:37 30° E 16:06:04 18° SE visible
23 Dec 3.2 17:37:12 10° NE 17:41:06 30° ESE 17:43:33 18° SSE visible
23 Dec 3.2 19:14:41 10° E 19:18:36 30° SE 19:21:03 18° SSW visible
23 Dec 3.2 20:52:11 10° ESE 20:56:05 30° SSE 20:58:32 18° SW visible
23 Dec 3.2 22:29:40 10° SE 22:33:35 30° S 22:36:02 18° WSW visible
24 Dec 3.2 00:07:10 10° SSE 00:11:04 30° SW 00:13:31 18° W visible
24 Dec 3.2 01:44:39 10° S 01:48:34 30° WSW 01:51:01 18° WNW visible
24 Dec 3.2 03:22:09 10° SSW 03:26:03 30° W 03:28:30 18° NW visible
24 Dec 3.2 04:59:38 10° SW 05:03:33 30° WNW 05:06:00 18° NNW visible
24 Dec 3.2 06:37:08 10° WSW 06:41:02 30° NW 06:43:29 18° N visible
24 Dec 3.2 08:14:37 10° W 08:18:32 30° NNW 08:20:59 18° NNE visible
24 Dec 3.2 09:52:07 10° WNW 09:56:01 30° N 09:58:28 18° NE visible
24 Dec 3.2 11:29:36 10° NW 11:33:31 30° NNE 11:35:58 18° ENE visible
24 Dec 3.2 13:07:06 10° NNW 13:11:01 30° NE 13:13:27 18° E visible
24 Dec 3.2 14:44:36 10° NNE 14:48:30 30° ENE 14:50:57 18° SE visible
24 Dec 3.2 16:22:05 10° NE 16:26:00 30° E 16:28:26 18° SSE visible
24 Dec 3.2 17:59:35 10° ENE 18:03:29 30° ESE 18:05:56 18° S visible
24 Dec 3.2 19:37:04 10° E 19:40:59 30° SSE 19:43:25 18° SSW visible
24 Dec 3.2 21:14:34 10° ESE 21:18:28 30° S 21:20:55 18° SW visible
24 Dec 3.2 22:52:03 10° SE 22:55:58 30° SSW 22:58:24 18° WSW visible
25 Dec 3.2 00:29:33 10° SSE 00:33:27 30° SW 00:35:54 18° W visible
25 Dec 3.2 02:07:02 10° S 02:10:57 30° WSW 02:13:23 18° WNW visible
25 Dec 3.2 03:44:32 10° SSW 03:48:26 30° W 03:50:53 18° NW visible
25 Dec 3.2 05:22:01 10° SW 05:25:56 30° WNW 05:28:22 18° NNW visible
25 Dec 3.2 06:59:31 10° WSW 07:03:25 30° NW 07:05:52 18° N visible
25 Dec 3.2 08:37:00 10° W 08:40:55 30° NNW 08:43:21 18° NNE visible
25 Dec 3.2 10:14:30 10° NW 10:18:24 30° N 10:20:51 18° ENE visible
25 Dec 3.2 11:51:59 10° NNW 11:55:54 30° NNE 11:58:20 18° E visible
25 Dec 3.2 13:29:29 10° N 13:33:23 30° NE 13:35:50 18° ESE visible
25 Dec 3.2 15:06:59 10° NNE 15:10:53 30° E 15:13:19 18° SE visible
25 Dec 3.2 16:44:28 10° NE 16:48:22 30° ESE 16:50:49 18° SSE visible
25 Dec 3.2 18:21:58 10° ENE 18:25:52 30° SE 18:28:18 18° S visible
25 Dec 3.2 19:59:27 10° E 20:03:21 30° SSE 20:05:48 18° SSW visible
25 Dec 3.2 21:36:57 10° ESE 21:40:51 30° S 21:43:18 18° SW visible
25 Dec 3.2 23:14:26 10° SE 23:18:20 30° SSW 23:20:47 18° WSW visible
26 Dec 3.2 00:51:56 10° SSE 00:55:50 30° SW 00:58:17 18° W visible
26 Dec 3.2 02:29:25 10° S 02:33:19 30° WSW 02:35:46 18° WNW visible
26 Dec 3.2 04:06:55 10° SSW 04:10:49 30° W 04:13:16 18° NW visible
26 Dec 3.2 05:44:24 10° WSW 05:48:19 30° WNW 05:50:45 18° N visible
26 Dec 3.2 07:21:54 10° W 07:25:48 30° NW 07:28:15 18° NNE visible
26 Dec 3.2 08:59:23 10° WNW 09:03:18 30° NNW 09:05:44 18° NE visible
26 Dec 3.2 10:36:53 10° NW 10:40:47 30° NNE 10:43:14 18° ENE visible
26 Dec 3.2 12:14:22 10° NNW 12:18:17 30° NE 12:20:43 18° E visible
26 Dec 3.2 13:51:52 10° N 13:55:46 30° ENE 13:58:13 18° ESE visible
26 Dec 3.2 15:29:21 10° NNE 15:33:16 30° E 15:35:42 18° SE visible
26 Dec 3.2 17:06:51 10° NE 17:10:45 30° ESE 17:13:12 18° SSE visible
26 Dec 3.2 18:44:20 10° ENE 18:48:15 30° SE 18:50:41 18° S visible
26 Dec 3.2 20:21:50 10° E 20:25:44 30° SSE 20:28:11 18° SSW visible
26 Dec 3.2 21:59:19 10° ESE 22:03:14 30° S 22:05:40 18° SW visible
26 Dec 3.2 23:36:49 10° SE 23:40:43 30° SSW 23:43:10 18° WSW visible
27 Dec 3.2 01:14:18 10° S 01:18:13 30° SW 01:20:39 18° WNW visible
27 Dec 3.2 02:51:48 10° SSW 02:55:42 30° WSW 02:58:09 18° NW visible
27 Dec 3.2 04:29:17 10° SW 04:33:12 30° W 04:35:38 18° NNW visible
27 Dec 3.2 06:06:47 10° WSW 06:10:41 30° NW 06:13:08 18° N visible
27 Dec 3.2 07:44:16 10° W 07:48:11 30° NNW 07:50:37 18° NNE visible
27 Dec 3.2 09:21:46 10° WNW 09:25:40 30° N 09:28:07 18° NE visible
27 Dec 3.2 10:59:15 10° NW 11:03:10 30° NNE 11:05:36 18° ENE visible
27 Dec 3.2 12:36:45 10° NNW 12:40:39 30° NE 12:43:06 18° E visible
27 Dec 3.2 14:14:15 10° N 14:18:09 30° ENE 14:20:36 18° ESE visible
27 Dec 3.2 15:51:44 10° NNE 15:55:38 30° E 15:58:05 18° SE visible
27 Dec 3.2 17:29:14 10° NE 17:33:08 30° ESE 17:35:35 18° SSE visible
27 Dec 3.2 19:06:43 10° ENE 19:10:37 30° SE 19:13:04 18° S visible
27 Dec 3.2 20:44:13 10° ESE 20:48:07 30° SSE 20:50:34 18° SW visible
27 Dec 3.2 22:21:42 10° SE 22:25:36 30° S 22:28:03 18° WSW visible
27 Dec 3.2 23:59:12 10° SSE 00:03:06 30° SSW 00:05:33 18° W visible
28 Dec 3.2 01:36:41 10° S 01:40:35 30° WSW 01:43:02 18° WNW visible
28 Dec 3.2 03:14:11 10° SSW 03:18:05 30° W 03:20:32 18° NW visible
28 Dec 3.2 04:51:40 10° SW 04:55:34 30° WNW 04:58:01 18° NNW visible
28 Dec 3.2 06:29:10 10° WSW 06:33:04 30° NW 06:35:31 18° N visible
28 Dec 3.2 08:06:39 10° W 08:10:33 30° NNW 08:13:00 18° NNE visible
28 Dec 3.2 09:44:09 10° WNW 09:48:03 30° N 09:50:30 18° NE visible
28 Dec 3.2 11:21:38 10° NW 11:25:32 30° NNE 11:27:59 18° ENE visible
28 Dec 3.2 12:59:08 10° NNW 13:03:02 30° NE 13:05:29 18° E visible
28 Dec 3.2 14:36:37 10° N 14:40:31 30° ENE 14:42:58 18° ESE visible
28 Dec 3.2 16:14:07 10° NE 16:18:01 30° E 16:20:28 18° SSE visible
28 Dec 3.2 17:51:36 10° ENE 17:55:30 30° ESE 17:57:58 18° S visible
28 Dec 3.2 19:29:06 10° E 19:33:00 30° SE 19:35:27 18° SSW visible
28 Dec 3.2 21:06:35 10° ESE 21:10:29 30° S 21:12:57 18° SW visible
28 Dec 3.2 22:44:05 10° SE 22:47:59 30° SSW 22:50:26 18° WSW visible
29 Dec 3.2 00:21:34 10° SSE 00:25:28 30° SW 00:27:56 18° W visible
29 Dec 3.2 01:59:04 10° S 02:02:58 30° WSW 02:05:25 18° WNW visible
29 Dec 3.2 03:36:33 10° SSW 03:40:27 30° W 03:42:55 18° NW visible
29 Dec 3.2 05:14:03 10° SW 05:17:57 30° WNW 05:20:24 18° NNW visible
29 Dec 3.2 06:51:32 10° WSW 06:55:26 30° NW 06:57:54 18° N visible
29 Dec 3.2 08:29:02 10° W 08:32:56 30° NNW 08:35:23 18° NNE visible
29 Dec 3.2 10:06:31 10° WNW 10:10:25 30° N 10:12:53 18° NE visible
29 Dec 3.2 11:44:01 10° NNW 11:47:54 30° NNE 11:50:22 18° E visible
29 Dec 3.2 13:21:30 10° N 13:25:24 30° NE 13:27:52 18° ESE visible
29 Dec 3.2 14:59:00 10° NNE 15:02:53 30° ENE 15:05:21 18° SE visible
29 Dec 3.2 16:36:29 10° NE 16:40:23 30° ESE 16:42:51 18° SSE visible
29 Dec 3.2 18:13:59 10° ENE 18:17:52 30° SE 18:20:21 18° S visible
29 Dec 3.2 19:51:28 10° E 19:55:22 30° SSE 19:57:50 18° SSW visible
29 Dec 3.2 21:28:58 10° ESE 21:32:51 30° S 21:35:20 18° SW visible
29 Dec 3.2 23:06:27 10° SE 23:10:21 30° SSW 23:12:49 18° WSW visible
